Back to catalog

SL-8 DEB

AliveLEO
NORAD 22842·DEBRIS·🇷🇺 Russia

Launched Feb 12, 1991 from Plesetsk Cosmodrome

Loading…

Next Passes (next 24 hours)

TLE

FreshSource: Space-Track

Epoch: Sep 14, 2026, 02:45 UTC

1 22842U 91009CM  26257.11508503  .00000127  00000-0  10820-2 0  9995
2 22842  73.8827 149.5080 0138379 156.7600 355.4841 12.36603206601161

Track SL-8 DEB in real time with AllMySat

Download on the App Store